{"data":{"norad_id":68797,"epoch":"2026-05-25T03:20:59.877888Z","epoch_age_seconds":56253,"freshness":"FRESH","line1":"1 68797U 26088F   26145.13958192  .00005969  00000+0  38731-3 0  9990","line2":"2 68797  97.5036 295.0618 0016573 152.6531 207.5573 15.08324860  4825","mean_motion":15.0832486,"eccentricity":0.0016573,"inclination_deg":97.5036,"raan_deg":295.0618,"arg_perigee_deg":152.6531,"mean_anomaly_deg":207.5573,"bstar":0.00038731,"rev_number":482,"period_min":95.470149580376,"perigee_km":529.85080052387,"apogee_km":552.78602743906,"semimajor_km":6919.4554139815,"source":"CELESTRAK","updated_at":"2026-05-25T13:38:08.088810Z"}}